Theta_e
308 309 309 309 310 310 310 310 309 308 308 308 310 311 312 317 319 312 309 313 318 319 316 318 320 314 309 308 311 314 319 321 328
309 309 309 309 309 309 309 309 309 309 310 311 311 311 311 311 310 309 314 321 321 323 323 323 320 318 315 311 308 312 314 310 316
309 309 309 309 309 309 309 309 308 309 311 311 312 313 312 310 309 310 318 321 324 322 323 323 324 324 321 322 319 313 309 308 310
309 309 309 309 309 309 309 309 308 310 311 311 312 312 316 318 320 323 322 323 323 323 323 321 319 320 323 321 319 321 321 312 307
309 309 309 309 308 308 308 308 309 311 312 313 314 317 321 322 323 322 321 322 324 324 323 323 320 318 317 317 320 320 322 324 323
309 309 309 308 308 308 308 308 309 310 312 314 315 317 320 318 317 318 320 319 322 323 321 318 319 318 318 319 320 322 321 319 322
309 308 308 308 307 308 308 309 310 310 311 312 313 315 319 314 319 320 321 320 318 320 322 322 319 321 317 322 320 320 317 319 316
309 308 307 307 307 308 310 310 310 311 311 312 313 309 314 315 317 319 319 321 321 324 324 320 319 319 321 319 315 316 320 319 319
309 308 307 307 307 308 310 311 311 311 311 311 312 307 307 310 311 312 317 318 322 323 323 322 320 318 312 313 321 321 321 321 320
309 308 307 307 307 308 309 311 312 312 312 312 311 307 306 306 307 307 308 311 320 322 323 324 322 323 322 322 321 320 319 318 316
309 308 308 307 307 308 308 310 311 312 311 311 309 308 306 305 305 304 304 304 306 319 322 322 323 322 321 320 319 317 315 314 313
308 308 307 307 307 308 308 310 310 310 310 308 308 308 307 306 306 307 307 306 306 307 320 321 321 319 318 318 318 314 312 310 312
308 308 307 307 307 307 308 309 310 310 310 309 309 308 307 307 307 306 306 306 306 305 307 316 317 317 316 315 315 312 312 314 313
308 308 307 307 307 307 308 310 310 310 310 310 310 308 307 306 305 305 305 305 305 305 305 304 305 313 316 315 315 313 310 308 309
308 308 307 307 306 307 307 309 311 311 310 310 310 308 308 307 306 305 304 304 304 305 305 304 304 305 306 310 311 311 310 311 311
308 308 307 307 307 307 307 308 310 311 311 310 309 309 309 309 307 305 303 303 303 303 304 304 303 303 302 302 302 305 309 309 309
308 308 307 307 307 306 306 307 309 311 311 310 309 309 308 309 309 307 303 303 302 303 304 304 304 303 302 302 302 302 302 306 309
309 308 307 307 307 306 306 306 307 308 310 309 308 308 308 309 310 307 303 303 302 302 303 304 303 303 303 302 302 302 302 303 304
308 308 307 307 307 306 306 306 306 307 308 308 309 309 311 308 308 305 304 303 302 303 303 303 303 303 303 303 303 303 303 303 300
308 308 308 307 307 306 306 306 306 306 307 308 309 309 309 307 306 306 305 304 304 303 303 303 303 304 304 304 304 303 303 300 296
Wind_Speed
14 13 12 12 13 14 15 16 16 18 18 16 12 10 9 7 4 3 7 10 11 10 10 9 11 8 7 6 5 4 4 5 8
14 13 12 12 13 14 14 15 16 17 16 14 12 11 9 8 8 9 13 15 13 13 12 11 11 11 10 8 6 8 6 4 5
15 13 12 12 12 13 14 15 17 17 14 12 12 12 12 13 14 15 19 17 15 13 14 14 14 14 12 12 11 8 5 6 7
15 14 13 13 13 13 14 16 18 17 13 12 12 13 14 16 19 21 20 15 15 14 14 15 14 14 14 12 10 13 13 10 9
14 13 14 14 13 14 15 17 19 17 15 13 14 16 16 18 22 19 16 16 18 14 18 16 15 14 12 12 14 13 18 16 16
15 14 15 15 15 16 17 18 19 16 14 13 13 14 15 13 14 16 16 18 17 16 13 13 14 15 14 16 16 15 15 14 15
14 15 15 15 17 17 17 18 18 15 13 13 12 13 13 12 17 20 18 16 17 19 16 16 16 17 20 19 16 16 16 17 16
14 14 15 15 15 15 16 17 15 14 13 13 12 11 12 13 13 16 15 17 20 19 17 14 17 16 16 14 13 18 20 19 20
14 14 14 15 15 15 15 16 15 13 11 11 12 12 13 12 12 14 16 17 17 19 17 14 17 19 17 17 20 18 17 16 15
14 14 13 14 15 15 16 15 14 12 11 10 10 13 13 12 11 11 11 15 16 16 19 17 16 19 21 19 15 13 11 8 7
14 14 14 14 16 16 15 15 13 11 10 11 10 12 13 13 12 11 11 11 13 18 18 16 15 13 12 11 9 7 8 7 6
13 13 13 14 16 17 17 17 16 14 11 11 11 11 12 12 12 12 12 11 11 14 19 18 14 10 9 10 11 9 8 10 14
14 14 14 14 16 16 17 17 17 16 14 12 12 11 11 11 10 10 11 11 11 12 12 12 11 12 11 13 14 14 16 15 15
16 15 16 16 17 18 18 18 15 17 15 14 12 11 10 10 10 10 9 10 11 11 11 10 9 13 14 13 15 13 13 13 13
18 18 17 17 18 19 20 19 19 16 16 16 13 11 9 8 7 7 8 8 9 9 10 10 9 8 8 12 13 13 13 13 13
21 19 19 19 18 19 20 22 21 21 20 20 16 12 9 7 7 6 6 7 7 7 8 9 8 7 6 6 7 9 12 12 13
21 21 20 20 21 22 22 23 25 22 22 21 19 11 10 8 7 5 6 5 6 6 7 7 6 6 4 4 4 4 6 9 11
24 23 22 22 22 23 23 24 24 25 25 21 11 9 7 16 10 7 6 5 4 4 5 5 4 3 1 1 3 5 6 8 11
27 26 25 24 23 24 23 24 24 24 25 25 17 10 10 11 11 12 9 6 5 4 4 3 2 1 2 4 6 7 8 11 13
30 28 27 27 26 25 25 26 26 25 24 24 25 14 12 12 13 19 16 11 8 6 5 5 3 4 5 6 7 9 12 14 17
Wind_Direction
123 121 120 118 114 112 112 113 117 122 126 134 139 133 129 142 140 91 98 94 90 90 87 86 81 83 95 108 124 115 137 134 98
126 123 121 117 115 114 114 116 120 122 123 128 127 122 118 116 121 113 96 90 90 87 84 82 79 74 73 79 97 101 97 139 154
131 128 123 120 117 116 118 120 124 126 130 125 117 107 96 100 95 92 87 84 88 84 82 79 74 76 70 75 70 80 84 85 104
133 130 126 123 121 120 121 121 125 129 136 128 113 103 100 99 91 89 89 92 88 86 85 77 65 83 71 61 81 79 70 72 80
134 133 130 126 124 123 123 126 126 131 134 126 113 110 111 105 104 103 98 97 81 77 75 76 65 67 80 67 69 74 83 77 65
139 137 136 133 130 126 128 133 134 139 131 117 108 121 118 107 108 106 89 97 95 94 96 80 67 56 66 80 71 79 74 78 95
145 142 141 139 140 139 134 136 137 139 129 119 117 128 126 105 99 96 98 94 89 80 78 83 62 67 74 81 80 73 70 71 69
149 148 145 142 142 143 141 140 141 142 131 123 118 122 134 122 111 113 107 93 103 84 81 67 73 86 86 91 82 79 73 69 73
154 152 154 147 146 149 144 143 146 146 136 127 119 120 131 131 119 105 102 103 102 89 87 78 78 82 88 90 86 89 93 90 90
161 159 158 154 152 153 150 146 144 145 142 134 127 123 128 129 124 115 107 100 107 100 91 87 87 91 94 101 105 101 97 92 76
170 166 164 158 155 154 156 154 153 151 147 137 127 122 120 119 117 111 111 110 112 131 108 101 100 102 101 99 95 87 60 54 63
174 175 170 167 162 164 163 158 155 153 150 141 131 124 119 118 115 111 107 108 106 125 133 118 111 105 87 83 77 70 57 63 64
184 182 180 176 171 173 168 164 158 155 150 141 132 127 122 118 116 112 109 110 111 117 140 155 135 96 88 80 76 74 70 66 64
192 187 186 182 179 176 176 170 173 163 158 152 141 130 123 119 110 112 111 111 112 112 119 129 130 111 98 91 81 73 68 64 59
196 194 192 186 183 179 179 179 172 171 167 160 153 141 133 130 123 111 117 116 113 111 113 115 118 118 118 91 82 72 63 56 50
202 199 197 191 190 190 184 180 179 174 173 165 157 150 148 149 137 119 124 124 118 115 113 114 111 109 103 94 84 74 61 48 38
209 204 202 196 193 193 191 191 182 184 179 177 163 153 159 178 160 142 143 132 130 128 123 119 112 108 106 93 70 45 30 38 32
208 208 206 202 200 201 196 195 199 190 185 187 171 161 180 174 180 175 161 144 149 148 147 146 136 129 147 10 353 355 352 353 351
209 209 207 205 203 201 200 198 202 202 195 188 194 186 188 169 172 185 180 167 161 166 182 191 205 221 284 311 323 331 335 336 339
212 212 210 207 206 204 203 200 201 204 205 202 202 203 199 188 180 180 181 177 168 173 197 229 248 280 292 299 309 315 326 331 335